TimeCST,TemperatureF,Dew PointF,Humidity,Sea Level PressureIn,VisibilityMPH,Wind Direction,Wind SpeedMPH,Gust SpeedMPH,PrecipitationIn,Events,Conditions,WindDirDegrees,DateUTC
12:51 AM,30.0,27.0,88,30.51,10.0,Calm,Calm,-,N/A,,Clear,0,2013-01-18 06:51:00
1:51 AM,28.9,26.1,89,30.52,10.0,West,4.6,-,N/A,,Clear,270,2013-01-18 07:51:00
2:51 AM,30.0,27.0,88,30.51,10.0,Calm,Calm,-,N/A,,Clear,0,2013-01-18 08:51:00
3:51 AM,28.0,26.1,92,30.51,10.0,Calm,Calm,-,N/A,,Clear,0,2013-01-18 09:51:00
4:51 AM,27.0,25.0,92,30.50,10.0,Calm,Calm,-,N/A,,Clear,0,2013-01-18 10:51:00
5:51 AM,28.0,26.1,92,30.49,10.0,Calm,Calm,-,N/A,,Clear,0,2013-01-18 11:51:00
6:51 AM,25.0,21.9,88,30.51,10.0,WSW,3.5,-,N/A,,Clear,250,2013-01-18 12:51:00
7:51 AM,26.6,24.8,93,30.50,7.0,WSW,3.5,-,N/A,,Clear,240,2013-01-18 13:51:00
8:51 AM,37.0,32.0,82,30.52,9.0,Calm,Calm,-,N/A,,Clear,0,2013-01-18 14:51:00
9:51 AM,44.1,34.0,68,30.53,10.0,Calm,Calm,-,N/A,,Clear,0,2013-01-18 15:51:00
10:51 AM,51.1,34.0,52,30.51,10.0,SSE,8.1,-,N/A,,Clear,150,2013-01-18 16:51:00
11:51 AM,57.0,34.0,42,30.46,10.0,South,10.4,-,N/A,,Clear,170,2013-01-18 17:51:00
12:51 PM,60.1,35.1,39,30.41,10.0,South,16.1,-,N/A,,Clear,180,2013-01-18 18:51:00
1:51 PM,61.0,34.0,36,30.38,10.0,SSE,10.4,-,N/A,,Clear,160,2013-01-18 19:51:00
2:51 PM,63.0,34.0,34,30.36,10.0,South,9.2,-,N/A,,Clear,170,2013-01-18 20:51:00
3:51 PM,62.1,34.0,35,30.35,10.0,South,9.2,-,N/A,,Clear,170,2013-01-18 21:51:00
4:51 PM,60.1,34.0,38,30.34,10.0,SSE,9.2,-,N/A,,Clear,150,2013-01-18 22:51:00
5:51 PM,54.0,34.0,47,30.34,10.0,SSE,6.9,-,N/A,,Clear,150,2013-01-18 23:51:00
6:51 PM,48.9,34.0,56,30.35,10.0,SE,6.9,-,N/A,,Clear,140,2013-01-19 00:51:00
7:51 PM,48.0,34.0,58,30.35,10.0,SE,5.8,-,N/A,,Clear,130,2013-01-19 01:51:00
8:51 PM,48.0,35.1,61,30.34,10.0,SE,8.1,-,N/A,,Clear,140,2013-01-19 02:51:00
9:51 PM,50.0,35.6,58,30.33,10.0,SSE,10.4,-,N/A,,Clear,160,2013-01-19 03:51:00
10:51 PM,48.0,37.0,66,30.32,10.0,South,10.4,-,N/A,,Clear,170,2013-01-19 04:51:00
11:51 PM,48.9,35.1,59,30.30,10.0,South,12.7,-,N/A,,Clear,190,2013-01-19 05:51:00